     2              OBSERVATION DATA    GPS                 RINEX VERSION / TYPE
teqc 1997Jun30 19970702                                     PGM / RUN BY / DATE
                                                            COMMENT
Original Marker Name: SNT0                                  COMMENT
Campaign Name: HMC San Gabriel Valley 1993-1996             COMMENT
4-Character Station Name: SNT0                              COMMENT
6-Character Antenna Code: DMRCHT                            COMMENT
Vertical Measurement Point: BPA                             COMMENT
Vertical Offset to Rinex Ref. Point: 0.0000                 COMMENT
Radial Measurement Point: RRP                               COMMENT
Radial Offset to Rinex Ref. Point: 0.0000                   COMMENT
Antenna Height from Field Measurement: 0.0610 m             COMMENT
Additional Antenna Identification Info.:                    COMMENT
Turborogue and Ashtech Choke Ring                           COMMENT
Original XYZ: 0.0000 0.0000 0.0000                          COMMENT
New XYZ position is based on association with SCEC monument COMMENT
E1D0Q3C7+0011. Position of that monument is believed to be  COMMENT
valid to within 1 m horizontally; vertical accuracy         COMMENT
should be no worse than 3-times this value.                 COMMENT
                                                            COMMENT
Revised Rinex header created by UCSD GPS archive for        COMMENT
GSAC on 12-Apr-1999 (1999:102) 20:59:26 GMT                 COMMENT
For assistance contact dagnew@ucsd.edu or hjohnson@ucsd.edu COMMENT
                                                            COMMENT
SAN TUZE                                                    MARKER NAME
GAL HARVEY MUDD COLLEGE                                     OBSERVER / AGENCY
S/N UNKNOWN TURBOROGUE SNR-8000 3.2                         REC # / TYPE / VERS
329 DORNE-MARGOL. TYPE T                                    ANT # / TYPE
 -2474432.0000 -4676644.0000  3550554.0000                  APPROX POSITION XYZ
        0.0610        0.0000        0.0000                  ANTENNA: DELTA H/E/N
     1     1     0                                          WAVELENGTH FACT L1/2
     5    L1    L2    C1    P2    P1                        # / TYPES OF OBSERV
     0                                                      INTERVAL
  1996     5    15    22    28    0.000000                  TIME OF FIRST OBS
  1996     5    15    23    59   30.000000                  TIME OF LAST OBS
     0                                                      # OF SATELLITES
                                                            END OF HEADER
 96  5 15 22 28  0.0000000  0  1G 5
         0.09254         0.54054  20340114.8544   20340117.6194
 96  5 15 22 28 30.0000000  0  3G16G24G 5
        -0.69254        -0.08854  21580568.6384   21580572.1654
        -1.19254        -1.34154  21746086.5514   21746089.3164
     31283.32744     24377.08144  20346067.8694   20346070.4424
 96  5 15 22 29  0.0000000  0  4G 6G16G24G 5
        -0.49854         0.63854  22524718.4684   22524721.6014
    -52731.56944    -41089.04744  21570534.1624   21570537.7464
     72992.26244     56876.66544  21759976.4734   21759979.3524
     63152.85444     49210.47144  20352132.4324   20352135.1044
 96  5 15 22 29 30.0000000  0  4G 6G16G24G 5
    -59561.12544    -46410.21144  22513384.1894   22513387.2264
   -106441.29544    -82940.74444  21560313.4694   21560317.0934
    144773.49844    112810.08844  21773635.8964   21773638.9374
     94128.59044     73347.40244  20358026.8404   20358029.6444
 96  5 15 22 30  0.0000000  0  4G 6G16G24G 5
   -126925.67044    -98902.02544  22500565.1574   22500568.3394
   -167558.23844   -130564.30044  21548683.1864   21548686.7344
    208898.09844    162777.29744  21785838.4544   21785841.6414
    117772.48644     91771.20444  20362526.0274   20362528.8994
 96  5 15 22 30 30.0000000  0  4G 6G16G24G 5
   -196864.79044   -153400.01144  22487256.3594   22487259.2084
   -230833.71444   -179869.82744  21536642.3534   21536645.9624
    270591.19644    210849.82744  21797578.4104   21797581.4124
    139322.55044    108563.44644  20366627.0774   20366629.8484
 96  5 15 22 31  0.0000000  0  4G 6G16G24G 5
   -264902.85544   -206416.65644  22474309.0604   22474312.1254
   -291774.62444   -227356.21344  21525045.6264   21525049.1224
    334312.86244    260503.06244  21809704.2044   21809707.1324
    163265.94044    127220.61844  20371183.2774   20371186.1844
 96  5 15 22 31 30.0000000  0  4G 6G16G24G 5
   -334769.43244   -260858.10544  22461013.9114   22461016.9844
   -354093.48444   -275916.32544  21513186.7004   21513190.1904
    396332.67044    308830.17044  21821506.2624   21821509.3934
    185877.81144    144840.24244  20375486.1594   20375489.1584
 96  5 15 22 32  0.0000000  0  4G 6G16G24G 5
   -409854.78344   -319366.13544  22446725.6674   22446728.5284
   -421176.28444   -328188.59744  21500421.3764   21500424.6024
    453257.55144    353187.20744  21832338.8054   21832341.8364
    203751.37244    158767.68244  20378887.5354   20378890.2554
 96  5 15 22 32 30.0000000  0  4G 6G16G24G 5
   -478392.48844   -372772.10344  22433683.3794   22433686.3654
   -481257.11444   -375004.79144  21488988.4614   21488991.7434
    516866.95444    402752.96244  21844443.2964   21844446.3064
    228661.72944    178178.34444  20383627.8714   20383630.5454
 96  5 15 22 33  0.0000000  0  4G 6G16G24G 5
   -540624.67844   -421264.68944  22421840.9544   22421844.0994
   -534601.18744   -416571.56444  21478837.3604   21478840.7404
    586909.44144    457331.51344  21857771.9744   21857774.9504
    260352.87744    202872.73644  20389658.5384   20389661.1234
 96  5 15 22 33 30.0000000  0  4G 6G16G24G 5
   -601168.46944   -468441.63444  22410319.8034   22410322.8944
   -585849.72144   -456505.45344  21469085.1384   21469088.3984
    658754.50244    513314.66344  21871443.6894   21871446.7664
    294189.21244    229238.70344  20396097.4564   20396100.0794
 96  5 15 22 34  0.0000000  0  5G 6G16G24G17G 5
   -662097.51144   -515918.78144  22398725.4934   22398728.5344
   -637091.79044   -496434.30344  21459334.0944   21459337.3044
    730303.26044    569066.92744  21885058.9664   21885061.8594
        -0.04754                  25121354.3884
    328090.84144    255655.53944  20402548.7334   20402551.4204
 96  5 15 22 34 30.0000000  0  5G 6G16G24G17G 5
   -723549.74444   -563803.61444  22387031.5384   22387034.3844
   -688477.81344   -536475.32744  21449555.6194   21449558.7974
    801411.68844    624476.07744  21898590.4544   21898593.4094
    -94393.33744    -73552.51544  25103391.7624   25103400.2024
    361923.60844    282018.71644  20408986.8934   20408989.5614
 96  5 15 22 35  0.0000000  0  5G 6G16G24G17G 5
   -785499.67144   -612076.24744  22375242.7514   22375245.4114
   -739985.12144   -576610.85744  21439754.1274   21439757.3534
    872104.82844    679561.62444  21912043.0404   21912046.0714
   -189235.77244                  25085343.4444
    395710.51644    308346.16144  20415416.3054   20415418.8204
 96  5 15 22 35 30.0000000  0  5G 6G16G24G17G 5
   -847672.16444   -660522.31244  22363411.7604   22363414.7534
   -791314.81444   -616607.99144  21429986.4454   21429989.6624
    942675.83944    734552.00944  21925472.1204   21925475.0714
   -284219.43044   -221468.42344  25067268.4524   25067279.8694
    429744.74944    334866.33444  20421892.8674   20421895.4854
 96  5 15 22 36  0.0000000  0  5G 6G16G24G17G 5
   -910276.09544   -709304.56744  22351498.4934   22351501.3744
   -842648.76644   -656608.44144  21420217.8084   21420221.0564
   1012950.27644    789311.29644  21938844.9564   21938847.9924
   -379534.02944                  25049130.4634
    463834.75244    361429.96844  20428379.8644   20428382.5584
 96  5 15 22 36 30.0000000  0  5G 6G16G24G17G 5
   -973122.21344   -758275.53444  22339539.2814   22339542.2574
   -893789.91944   -696458.65844  21410485.9414   21410489.1644
   1083126.78744    843994.27744  21952199.1244   21952202.0494
   -474994.52544                  25030964.7214
    498176.66644    388189.89644  20434915.0264   20434917.6704
 96  5 15 22 37  0.0000000  0  5G 6G16G24G17G 5
  -1036059.76044   -807317.74844  22327562.6484   22327565.4924
   -944556.92144   -736017.33444  21400825.3064   21400828.4804
   1153352.45844    898715.56344  21965562.6414   21965565.5334
   -570440.65544                  25012802.0434
    532932.97644    415272.72344  20441528.9604   20441531.5554
 96  5 15 22 37 30.0000000  0  5G 6G16G24G 5G17
  -1098747.19944   -856165.07744  22315633.6404   22315636.6104
   -994594.53344   -775007.65544  21391303.3744   21391306.5534
   1223957.73044    953732.64144  21978998.3274   21979001.3164
    568437.97344    442938.94044  20448285.3704   20448287.9194
   -665536.01644   -518597.22444  24994705.7814   24994715.2134
 96  5 15 22 38  0.0000000  0  6G 6G16G24G 5G17G25
  -1161247.39644   -904866.50144  22303740.1844   22303743.1274
  -1043982.68544   -813491.89944  21381905.1584   21381908.3564
   1294856.96244   1008978.78344  21992490.0174   21992493.1034
    604612.46944    471126.84844  20455169.1094   20455171.7274
   -760383.10444                  24976656.8424
        -0.03354         0.07554  25283154.5414
 96  5 15 22 38 30.0000000  0  7G 6G16G24G 5G17G25G 4
  -1223661.94544   -953501.19044  22291863.0824   22291866.1264
  -1092825.03344   -851550.84544  21372610.7134   21372613.9814
   1365933.56044   1064363.13144  22006015.5204   22006018.6504
    641352.38744    499755.34644  20462160.5314   20462163.2144
   -855095.93844   -666305.68144  24958633.3254   24958644.4954
    -33856.10444    -26381.29844  25276711.7624   25276713.9384
        -0.72354        -0.59054  24783924.1814   24783928.9304
 96  5 15 22 39  0.0000000  0  7G 6G16G24G 5G17G25G 4
  -1285944.88144  -1002033.32144  22280011.1024   22280014.1854
  -1141053.35544   -889131.32644  21363433.0784   21363436.3564
   1437246.09044   1119931.32044  22019585.8284   22019588.8334
    678703.70644    528860.26144  20469268.2544   20469270.8314
   -949612.48444                  24940647.3844
    -67134.27644    -52312.37144  25270379.1934   25270383.3364
     95560.75844     74462.85044  24802108.9344   24802112.8194
 96  5 15 22 39 30.0000000  0  7G 6G16G24G 5G17G25G 4
  -1348097.47944  -1050463.88444  22268183.7284   22268186.5924
  -1188688.18744   -926249.34544  21354368.5454   21354371.7224
   1508784.87644   1175675.81444  22033199.2934   22033202.2434
    716644.14944    558424.23344  20476488.1034   20476490.7874
  -1043940.79044                  24922697.2874
    -99880.28744    -77828.72944  25264147.6164
    191121.16444    148925.46644  24820293.5684   24820296.3554
 96  5 15 22 40  0.0000000  0  7G 6G16G24G 5G17G25G 4
  -1410150.14044  -1098816.57344  22256375.5344   22256378.3094
  -1235769.11944   -962935.75944  21345409.3954   21345412.5564
   1580514.18944   1231568.77144  22046848.9814   22046852.0184
    755143.55944    588423.76244  20483814.3074   20483816.9214
  -1138114.02544   -886838.47244  24904776.2974   24904786.9704
   -132151.75144   -102975.34544  25258006.6864   25258010.7044
    286614.43144    223335.77144  24838465.3894   24838467.2004
 96  5 15 22 40 30.0000000  0  7G 6G16G24G 5G17G25G 4
  -1472199.85744  -1147166.97244  22244567.9604   22244570.8384
  -1282377.85244   -999254.22244  21336540.0234   21336543.2214
   1652337.00144   1287534.58544  22060516.4224   22060519.4174
    794110.51944    618787.61544  20491229.4494   20491232.1704
  -1232206.72444   -960157.17544  24886870.8994   24886878.4644
   -164027.36144   -127813.48344  25251941.0994   25251942.9464
    381935.84544    297612.16244  24856604.5884   24856608.4074
 96  5 15 22 41  0.0000000  0  7G 6G16G24G 5G17G25G 4
  -1534235.88444  -1195506.70344  22232762.8264   22232765.8924
  -1328510.58444  -1035201.78144  21327761.2304   21327764.3864
   1724237.60044   1343561.00844  22074198.7264   22074201.8284
    833542.21244    649513.59544  20498733.1144   20498735.8254
  -1326211.38944  -1033407.29644  24868982.2994   24868991.7314
   -195500.91844   -152338.34944  25245952.0294   25245956.3634
    477097.54144    371764.12644  24874713.1464   24874716.5664
 96  5 15 22 41 30.0000000  0  7G 6G16G24G 5G17G25G 4
  -1596267.51644  -1243843.00744  22220958.6314   22220961.4304
  -1374201.92044  -1070805.39144  21319066.4564   21319069.6824
   1796180.56244   1399620.44844  22087889.0024   22087892.0754
    873418.47044    680585.99344  20506321.3464   20506323.8754
  -1420154.06344  -1106609.14544  24851105.4594   24851113.1694
   -226603.06144   -176573.80244  25240033.6654   25240038.9354
    572103.47844    445794.67244  24892792.1994   24892791.9964
 96  5 15 22 42  0.0000000  0  7G 6G16G24G 5G17G25G 4
  -1658263.78644  -1292151.76244  22209161.1744   22209163.6104
  -1419417.65344  -1106038.40244  21310462.1894   21310465.3704
   1868204.89744   1455743.29344  22101594.7684   22101597.7974
    913784.79744    712040.26344  20514002.8554   20514005.6244
  -1513986.87544  -1179725.33244  24833249.7544   24833259.9314
   -257271.55144   -200471.31344  25234197.4184
    667027.91244    519761.73444  24910855.7464   24910859.1714
 96  5 15 22 42 30.0000000  0  7G 6G16G24G 5G17G25G 4
  -1720227.69144  -1340435.29344  22197369.8054   22197372.5124
  -1464162.12344  -1140904.19544  21301947.6214   21301950.8264
   1940311.95344   1511930.59944  22115316.3354   22115319.3574
    954635.91944    743872.29244  20521776.5934   20521779.3934
  -1607696.85144  -1252745.83644  24815416.9204   24815426.1044
   -287483.59744   -224013.20944  25228448.0264   25228454.7464
    761897.23344    593685.84044  24928908.8254   24928913.9824
 96  5 15 22 43  0.0000000  0  7G 6G16G24G 5G17G25G 4
  -1782141.16144  -1388679.52544  22185587.9114   22185590.9564
  -1508427.97844  -1175397.04244  21293524.0504   21293527.2514
   2012510.70344   1568189.35544  22129055.2844   22129058.3114
    995977.48444    776086.48044  20529643.5534   20529646.2324
  -1701273.50344                  24797609.4814
   -317238.46744   -247198.77644  25222786.0274   25222789.8474
    856726.29744    667578.58444  24946954.3604   24946958.4194
 96  5 15 22 43 30.0000000  0  7G 6G16G24G 5G17G25G 4
  -1843966.66244  -1436855.21544  22173822.8824   22173825.5194
  -1552196.83144  -1209502.61644  21285195.1544   21285198.3644
   2084855.41444   1624561.84344  22142822.0044   22142825.1024
   1037841.90544    808708.09144  20537610.1654   20537612.8754
  -1794685.77344  -1398450.94944  24779833.4244   24779842.1114
   -346500.42344   -270000.30644  25217217.6324
    951527.75044    741449.82944  24964994.4064   24964997.5984
 96  5 15 22 44  0.0000000  0  7G 6G16G24G 5G17G25G 4
  -1905684.97144  -1484947.37944  22162078.3134   22162081.1914
  -1595436.11244  -1243195.53744  21276966.9574   21276970.1614
   2157377.32244   1681072.40944  22156622.4974   22156625.5834
   1080248.74544    841752.36844  20545679.8884   20545682.7054
  -1887903.32044  -1471087.77444  24762094.7294   24762104.4104
   -375222.93644                  25211752.1004
   1046304.11344    815301.48844  24983029.9514   24983033.1274
 96  5 15 22 44 30.0000000  0  7G 6G16G24G 5G17G25G 4
  -1967341.51644  -1532991.41144  22150345.4044   22150348.3984
  -1638185.65644  -1276506.84444  21268831.8754   21268835.0304
   2230022.29444   1737678.86444  22170446.3414   22170449.3034
   1123138.78444    875173.16144  20553841.6184   20553844.3534
  -1980985.50744  -1543619.10944  24744381.6654   24744392.0904
   -403471.72544   -314393.51244  25206376.5844   25206379.7364
   1140975.95644    889071.71644  25001045.2724   25001045.9234
 96  5 15 22 45  0.0000000  0  7G 6G16G24G 5G17G25G 4
  -2028921.80644  -1580976.03244  22138626.9814   22138629.7824
  -1680420.53444  -1309417.11444  21260794.8574   21260798.0434
   2302798.07644   1794387.25544  22184295.1134   22184298.0794
   1166535.56744    908988.81744  20562099.7144   20562102.4024
  -2073932.41244  -1616044.99644  24726694.1324   24726705.3024
   -431251.48644   -336040.11344  25201090.3284   25201095.7074
   1235540.59844    962758.42244  25019040.1624   25019042.4124
 96  5 15 22 45 30.0000000  0  7G 6G16G24G 5G17G25G 4
  -2090428.47944  -1628903.28844  22126922.6834   22126925.6734
  -1722135.42044  -1341922.19544  21252856.7434   21252859.9144
   2375716.72344   1851206.96644  22198171.0384   22198174.0184
   1210465.06444    943219.57544  20570459.2284   20570461.9914
  -2166743.44744  -1688365.05944  24709032.5294   24709042.7064
   -458545.95644   -357308.55144  25195896.1884   25195900.8094
   1330022.87844   1036380.96544  25037019.5404   25037022.2434
 96  5 15 22 46  0.0000000  0  7G 6G16G24G 5G17G25G 4
  -2151855.85244  -1676768.74644  22115233.3014   22115236.1374
  -1763292.24444  -1373992.42444  21245024.8254   21245028.0174
   2448778.77744   1908138.42344  22212074.2944   22212077.3314
   1254954.48044    977886.63144  20578925.2374   20578927.8474
  -2259393.88944  -1760559.97444  24691401.5184   24691410.7024
   -485344.77644   -378190.76144  25190796.4894   25190799.6914
   1424463.36344   1109970.93144  25054990.9994   25054993.4044
 96  5 15 22 46 30.0000000  0  7G 6G16G24G 5G17G25G 4
  -2213234.25444  -1724596.04344  22103553.3734   22103556.3094
  -1803918.23844  -1405649.01744  21237293.9954   21237297.1224
   2521950.62844   1965155.43844  22225998.5284   22226001.6454
   1299984.52644   1012974.96644  20587494.2364   20587497.0494
  -2351926.38444  -1832662.98844  24673793.0994   24673803.5244
   -511700.23244   -398727.48044  25185781.3004   25185784.9354
   1518833.70844   1183506.23244  25072949.3274   25072952.4304
 96  5 15 22 47  0.0000000  0  7G 6G16G24G 5G17G25G 4
  -2274586.31144  -1772402.81944  22091878.5374   22091881.5434
  -1844028.62844  -1436903.84344  21229661.2164   21229664.4034
   2595221.31044   2022249.45944  22239941.4264   22239944.4294
   1345546.21644   1048477.56544  20596164.3024   20596166.9854
  -2444358.37444  -1904687.66844  24656203.6444   24656212.8284
   -537623.07744   -418927.09044  25180848.1864   25180851.9794
   1613127.03144   1256981.53444  25090892.7404   25090895.9484
 96  5 15 22 47 30.0000000  0  7G 6G16G24G 5G17G25G 4
  -2335922.61244  -1820197.31944  22080206.4994   22080209.5644
  -1883617.34544  -1467752.17144  21222127.5174   21222130.7664
   2668612.04944   2079437.02644  22253907.0914   22253910.2534
   1391622.85144   1084381.41944  20604932.2644   20604935.2654
  -2536672.57544  -1976620.59844  24638636.3954   24638646.0764
   -563103.24344   -438781.76144  25175999.5464   25176003.5624
   1707345.65544   1330398.60944  25108821.9264   25108824.0524
 96  5 15 22 48  0.0000000  0  7G 6G16G24G 5G17G25G 4
  -2397204.71144  -1867949.58544  22068544.7994   22068547.8804
  -1922636.94844  -1498157.03044  21214702.2574   21214705.4784
   2742158.10844   2136745.63144  22267902.4264   22267905.6284
   1438223.52744   1120693.61544  20613800.0324   20613802.9564
  -2628822.43344                  24621100.7194
   -588109.14844   -458266.90044  25171240.8434   25171244.0434
   1801499.88744   1403765.51144  25126738.5154   25126742.0454
 96  5 15 22 48 30.0000000  0  7G 6G16G24G 5G17G25G 4
  -2458415.88644  -1915646.58344  22056896.5964   22056899.6854
  -1961081.74944  -1528113.99344  21207386.4114   21207389.6084
   2815881.29144   2194192.25144  22281931.4444   22281934.6474
   1485345.82644   1157412.27144  20622767.1744   20622770.1914
  -2720802.07944  -2120097.75444  24603597.3614   24603608.2834
   -612626.46744   -477371.29644  25166575.2234   25166582.7954
   1895585.93944   1477079.29844  25144642.4064   25144645.2234
 96  5 15 22 49  0.0000000  0  7G 6G16G24G 5G17G25G 4
  -2519558.62144  -1963290.25144  22045261.5714   22045264.7414
  -1998970.70244  -1557637.82844  21200176.4444   21200179.6444
   2889768.84544   2251766.95444  22295991.8284   22295994.9704
   1532974.81744   1194525.75644  20631830.6424   20631833.7004
  -2812600.07844  -2191628.42044  24586128.7474   24586137.1864
   -636642.74144   -496085.25844  25162005.2694   25162007.5784
   1989605.90544   1550341.60644  25162533.9034   25162539.8554
 96  5 15 22 49 30.0000000  0  7G 6G16G24G 5G17G25G 4
  -2580659.60644  -2010901.39144  22033634.3704   22033637.4334
  -2036357.11744  -1586770.07644  21193061.9964   21193065.2034
   2963752.98844   2309416.92344  22310070.4954   22310073.6604
   1581057.32744   1231992.62444  20640980.4664   20640983.5294
  -2904249.88844  -2263043.65744  24568688.0624   24568696.5014
   -660197.36044   -514439.53144  25157523.2874   25157527.4064
   2083523.13844   1623523.82444  25180405.7354   25180412.8544
 96  5 15 22 50  0.0000000  0  7G 6G16G24G 5G17G25G 4
  -2641670.43644  -2058442.27644  22022024.3994   22022027.4874
  -2073223.05044  -1615496.75444  21186046.6264   21186049.8494
   3037817.55744   2367129.56044  22324164.6104   22324167.7944
   1629628.06344   1269839.93444  20650223.1414   20650226.2304
  -2995739.49244                  24551278.0484
   -683272.91444   -532420.50644  25153132.0084   25153140.4484
   2177363.95444   1696646.51544  25198263.1494   25198264.6174
 96  5 15 22 50 30.0000000  0  7G 6G16G24G 5G17G25G 4
  -2702601.95244  -2105921.35744  22010429.5394   22010432.6914
  -2109597.72744  -1643840.63544  21179124.7854   21179127.9994
   3111926.29744   2424876.61444  22338267.0714   22338270.1434
   1678674.36544   1308057.82244  20659556.4924   20659559.5124
  -3087096.27344  -2405520.95844  24533893.2204   24533902.1564
   -705895.32244   -550048.32944  25148827.0794   25148831.2324
   2271116.76744   1769700.63344  25216103.5954   25216106.2244
 96  5 15 22 51  0.0000000  0  7G 6G16G24G 5G17G25G 4
  -2763435.47944  -2153324.07944  21998853.3414   21998856.5244
  -2145463.39944  -1671787.88544  21172299.7234   21172302.9074
   3186072.39344   2482652.78444  22352376.4374   22352379.6484
   1728208.45944   1346655.81244  20668982.4334   20668985.4654
  -3178305.83144  -2476593.15144  24516536.4664   24516545.8984
   -728056.50244   -567316.77544  25144609.7784   25144615.7414
   2364793.07544   1842695.14544  25233929.7424   25233932.5904
 96  5 15 22 51 30.0000000  0  7G 6G16G24G 5G17G25G 4
  -2824150.65544  -2200634.58344  21987299.5444   21987302.6314
  -2180768.10344  -1699298.01744  21165581.5024   21165584.7744
   3260288.90144   2540483.81444  22366499.4994   22366502.7494
   1778251.15644   1385650.10944  20678505.1564   20678508.2064
  -3269357.06844  -2547541.99944  24499210.0144   24499219.1984
   -749748.06144   -584218.44244  25140481.9754   25140487.3384
   2458396.24744   1915632.66744  25251741.9384   25251744.5084
 96  5 15 22 52  0.0000000  0  7G 6G16G24G 5G17G25G 4
  -2884719.16744  -2247830.80144  21975773.7494   21975776.7574
  -2215456.82644  -1726328.16444  21158980.4244   21158983.6464
   3334635.66744   2598416.34444  22380647.1704   22380650.3914
   1828837.92944   1425068.35444  20688131.5754   20688134.6714
  -3360219.81544  -2618343.95944  24481919.2924   24481927.7324
   -770934.02944   -600726.95944  25136450.4744   25136453.7974
   2551951.84544   1988533.09744  25269545.1504   25269547.4624
 96  5 15 22 52 30.0000000  0  7G 6G16G24G 5G17G25G 4
  -2945173.70144  -2294938.20644  21964269.6744   21964272.5094
  -2249547.00144  -1752891.90944  21152493.2184   21152496.4464
   3409122.21244   2656457.79744  22394821.4924   22394824.7914
   1879944.76544   1464891.84844  20697856.9244   20697860.0244
  -3450908.62244  -2689010.37544  24464661.8314   24464670.7664
   -791622.68744   -616848.00444  25132513.4884   25132517.9854
   2645437.74444   2061379.24644  25287334.9834   25287342.0584
 96  5 15 22 53  0.0000000  0  7G 6G16G24G 5G17G25G 4
  -3005552.96844  -2341986.96344  21952779.8284   21952782.9654
  -2283053.64244  -1779000.95344  21146117.0914   21146120.3304
   3483743.33744   2714604.12044  22409021.4804   22409024.6754
   1931545.89044   1505100.50644  20707676.2934   20707679.4124
  -3541441.80044  -2759555.51144  24447433.6684   24447442.3564
   -811831.06444   -632594.75244  25128667.8954
   2738827.87344   2134150.74744  25305106.6064   25305109.6494
 96  5 15 22 53 30.0000000  0  7G 6G16G 5G24G17G25G 4
  -3065857.92644  -2388977.81844  21941304.0934   21941307.0124
  -2315966.55744  -1804647.35344  21139853.9074   21139857.1274
   1983652.49444   1545703.04144  20717591.8394   20717594.9304
   3558528.69444   2772878.41344  22423252.6294   22423255.6694
  -3631799.97044  -2829964.32544  24430239.0214   24430247.9574
   -831539.04844   -647951.63644  25124917.5034   25124920.4474
   2832141.69444   2206862.77944  25322863.3814   25322865.8554
 96  5 15 22 54  0.0000000  0  7G 6G16G 5G24G17G25G 4
  -3126074.80144  -2435900.03844  21929845.2804   21929848.1344
  -2348302.00044  -1829843.77644  21133700.6794   21133703.9084
   2036279.42844   1586711.02744  20727606.4024   20727609.4454
   3633475.58544   2831278.57644  22437514.5894   22437517.8524
  -3721965.74444  -2900223.20344  24413080.8814   24413088.8194
   -850727.46344   -662903.65144  25121266.3934   25121271.3894
   2925406.23844   2279536.45544  25340610.9254   25340614.6684
 96  5 15 22 54 30.0000000  0  7G 6G16G 5G24G17G25G 4
  -3186196.63544  -2482748.19844  21918404.4814   21918407.3894
  -2380050.49944  -1854582.83844  21127659.1044   21127662.3214
   2089448.72644   1628141.63244  20737724.2284   20737727.3364
   3708587.78744   2889807.55544  22451808.0444   22451811.2124
  -3811923.45044  -2970319.93444  24395962.3994   24395972.8244
   -869385.47044   -677442.37344  25117716.0364   25117719.2164
   3018639.04944   2352185.35144  25358352.5614
 96  5 15 22 55  0.0000000  0  7G 6G16G 5G24G17G25G 4
  -3246212.30544  -2529513.63444  21906983.8354   21906986.7694
  -2411192.54844  -1878849.34544  21121732.9784   21121736.1774
   2143162.92444   1669996.83944  20747945.7354   20747948.7924
   3783857.39344   2948459.18144  22466131.3194   22466134.5304
  -3901664.05844  -3040247.47244  24378885.2594   24378892.2104
   -887516.09544   -691570.11244  25114265.7514   25114268.6834
   3111846.61544   2424814.62344  25376089.6004
 96  5 15 22 55 30.0000000  0  7G 6G16G 5G24G17G25G 4
  -3306161.98044  -2576227.64644  21895575.7704   21895578.4524
  -2441794.56244  -1902695.04644  21115909.6234   21115912.9104
   2197369.01644   1712235.34044  20758260.8594   20758263.8934
   3859197.50044   3007165.74544  22480468.1174   22480471.2904
  -3991262.16644  -3110063.98444  24361835.1514   24361845.0804
   -905174.36544   -705329.81744  25110905.4334   25110910.4824
   3204971.00144   2497379.10044  25393810.5174   25393812.1194
 96  5 15 22 56  0.0000000  0  7G 6G16G 5G24G17G25G 4
  -3366098.38444  -2622931.30944  21884170.2374   21884173.2944
  -2471923.30644  -1926171.96444  21110176.3254   21110179.5104
   2251996.40644   1754802.12444  20768656.0374   20768659.0634
   3934518.74144   3065857.60244  22494801.3044   22494804.4644
  -4080802.12744  -3179835.20144  24344795.9754   24344803.3204
   -922442.71444   -718785.69044  25107619.3754   25107626.7254
   3297930.65444   2569815.14044  25411500.1784   25411498.7894
 96  5 15 22 56 30.0000000  0  7G 6G16G 5G24G17G25G 4
  -3425934.20444  -2669556.60344  21872783.6634   21872786.7474
  -2501485.23044  -1949207.20744  21104550.7994   21104554.0284
   2307125.38044   1797759.75244  20779146.7994   20779149.8604
   4009908.19444   3124602.62044  22509147.4784   22509150.5954
  -4170201.01844  -3249496.47244  24327783.8114   24327792.2504
   -939238.14244   -731873.03244  25104423.5304   25104430.6424
   3390802.41544                  25429173.1994
 96  5 15 22 57  0.0000000  0  7G 6G16G 5G24G17G25G 4
  -3485631.13744  -2716073.67244  21861423.8684   21861426.8234
  -2530460.28244  -1971785.14744  21099037.0054   21099040.1934
   2362776.63744   1841124.35344  20789736.9094   20789739.9344
   4085395.24844   3183423.68644  22523512.1324   22523515.2524
  -4259418.63544  -3319016.50544  24310806.0984   24310815.7794
   -955527.05544   -744565.69344  25101323.9714   25101330.1814
   3483616.22344   2714505.11744  25446835.1064
 96  5 15 22 57 30.0000000  0  7G 6G16G 5G24G17G25G 4
  -3545178.86444  -2762474.47344  21850092.3504   21850095.1784
  -2558844.50744  -1993902.70444  21093635.7124   21093638.9174
   2418968.68944   1884910.35344  20800429.9174   20800433.0164
   4161006.68144   3242341.67444  22537900.6594   22537903.5534
  -4348435.97044  -3388380.47944  24293866.4404   24293875.8734
   -971288.84944   -756847.64344  25098324.4324   25098329.2804
   3576386.71144   2786793.84344  25464488.6504
 96  5 15 22 58  0.0000000  0  7G 6G16G 5G24G17G25G 4
  -3604640.96944  -2808808.55944  21838777.0534   21838779.9044
  -2586666.86544  -2015582.44444  21088341.2594   21088344.4744
   2475651.78344   1929078.98544  20811216.3184   20811219.3694
   4236724.84944   3301342.83344  22552309.2964   22552312.3054
  -4437265.84744  -3457598.35744  24276962.5874   24276970.4184
   -986567.76644   -768753.27744  25095417.0254   25095421.6934
   3669069.21544                  25482125.5924
 96  5 15 22 58 30.0000000  0  7G 6G16G 5G24G17G25G 4
  -3664065.38844  -2855113.28544  21827469.1524   21827471.8474
  -2613954.77344  -2036845.73044  21083148.7344   21083151.8344
   2532789.21944   1973601.65244  20822089.4284   20822092.2904
   4312522.34444   3360405.80144  22566733.2654   22566735.9424
  -4525930.92144  -3526687.82844  24260090.1304   24260098.8184
  -1001390.20744   -780303.26144  25092596.3164   25092600.6444
   3761626.84444                  25499737.8724
 96  5 15 22 59  0.0000000  0  6G 6G16G24G17G25G 5
  -3723448.87244  -2901386.10844  21816168.7534   21816171.5344
  -2640701.65444  -2057687.43844  21078058.9424   21078062.0774
   4388395.40244   3419527.64944  22581171.3814   22581174.4514
  -4614433.35744  -3595650.58044  24243248.6874   24243256.3664
  -1015768.68644   -791507.28444  25089860.2124   25089864.3164
   2590373.42244   2018472.45244  20833047.3174   20833050.0864
 96  5 15 22 59 30.0000000  0  6G 6G16G24G17G25G 5
  -3782792.81844  -2947628.12144  21804875.9964   21804878.7794
  -2666902.94244  -2078104.01044  21073072.9244   21073076.0624
   4464333.50944   3478700.18444  22595621.9084   22595624.9114
  -4702780.06444  -3664491.98444  24226436.5634   24226442.6474
  -1029697.44244   -802360.90444  25087209.6614   25087213.7204
   2648412.15644   2063697.42844  20844091.6374   20844094.5094
 96  5 15 23  0  0.0000000  0  6G 6G16G24G17G25G 5
  -3842085.63044  -2993830.28844  21793592.9184   21793595.4974
  -2692566.26944  -2098101.39044  21068189.4354   21068192.5914
   4540318.92144   3537909.58944  22610081.3894   22610084.5784
  -4790977.54444  -3733217.11044  24209652.9654   24209659.7464
  -1043188.29944   -812873.23344  25084642.4764   25084647.2204
   2706891.86944   2109266.01844  20855220.1114   20855222.9214
 96  5 15 23  0 30.0000000  0  6G 6G16G24G17G25G 5
  -3901271.73444  -3039949.31244  21782330.1524   21782332.8064
  -2717676.54544  -2117667.82344  21063411.0704   21063414.1854
   4616366.52444   3597167.44644  22624552.8214   22624555.7324
  -4879006.72044  -3801811.08344  24192901.3984   24192908.6854
  -1056209.78944   -823019.88344  25082164.5324   25082169.6784
   2765838.18644   2155198.19044  20866437.2274   20866440.2554
 96  5 15 23  1  0.0000000  0  6G 6G16G24G17G25G 5
  -3960298.46744  -3085944.15244  21771097.7014   21771100.2974
  -2742202.78444  -2136779.16344  21058743.8444   21058746.9624
   4692518.03544   3656506.27044  22639044.0424   22639047.0344
  -4966818.68944  -3870235.80044  24176191.3034   24176198.3404
  -1068708.76044   -832759.36944  25079786.1474   25079792.5344
   2825294.94144   2201528.11244  20877751.5094   20877754.4384
 96  5 15 23  1 30.0000000  0  6G 6G16G24G17G25G 5
  -4019203.28044  -3131843.98044  21759888.4924   21759891.4624
  -2766175.18844  -2155458.94144  21054182.0574   21054185.2104
   4768732.94144   3715894.49744  22653547.2284   22653550.5354
  -5054433.77344  -3938507.10244  24159518.5194   24159525.6384
  -1080705.41044   -842107.40344  25077503.1994   25077506.0524
   2885227.62944   2248228.89144  20889156.2104   20889159.2044
 96  5 15 23  2  0.0000000  0  6G 6G16G24G17G25G 5
  -4077974.39144  -3177639.63444  21748704.7794   21748707.4064
  -2789567.25044  -2173686.50744  21049730.6984   21049733.7904
   4845029.49344   3775346.34144  22668065.9844   22668069.1824
  -5141839.92144  -4006615.59844  24142885.5444   24142892.9584
  -1092200.87644   -851064.95444  25075315.5554   25075319.0774
   2945635.71944   2295300.11744  20900651.5584   20900654.4424
 96  5 15 23  2 30.0000000  0  6G 6G16G24G17G25G 5
  -4136609.81744  -3223329.55944  21737546.8284   21737549.4774
  -2812355.34044  -2191443.44444  21045394.2744   21045397.3684
   4921415.59244   3834867.95844  22682601.8284   22682604.9994
  -5229029.69444  -4074555.50144  24126293.8774   24126300.5024
  -1103192.14344   -859629.53744  25073223.9514   25073230.6464
   3006532.02744   2342751.77344  20912239.8004   20912242.7554
 96  5 15 23  3  0.0000000  0  6G 6G16G24G17G25G 5
  -4195134.33144  -3268933.05644  21726409.9604   21726412.6234
  -2834528.19744  -2208720.98044  21041174.9314   21041178.0054
   4997892.57144   3894460.40144  22697154.9274   22697158.1404
  -5316023.79044  -4142342.92044  24109739.0754   24109745.0844
  -1113704.03444   -867820.63544  25071223.6614   25071227.6294
   3067908.38244   2390577.48744  20923919.2914   20923922.1384
 96  5 15 23  3 30.0000000  0  6G 6G16G24G17G25G 5
  -4253548.45744  -3314450.53644  21715294.0914   21715297.0154
  -2856062.71044  -2225501.10144  21037077.0184   21037080.1384
   5074458.52644   3954122.17044  22711724.8454   22711728.0154
  -5402832.59044  -4209985.95144  24093219.8274   24093227.6394
  -1123754.99844   -875652.56644  25069310.9544   25069315.7814
   3129779.24044   2438788.52544  20935692.9484   20935695.8224
 96  5 15 23  4  0.0000000  0  6G 6G16G24G17G25G 5
  -4311861.94744  -3359889.59744  21704197.4704   21704199.8404
  -2876980.24144  -2241800.46044  21033096.5754   21033099.6364
   5151107.60344   4013848.71644  22726310.7504   22726313.4004
  -5489480.69044  -4277503.78644  24076731.2524   24076736.4994
  -1133368.42244   -883143.54644  25067481.6224   25067486.1764
   3192144.08544   2487384.49144  20947560.6024   20947563.4934
 96  5 15 23  4 30.0000000  0  6G 6G16G24G17G25G 5
  -4370101.60544  -3405271.12644  21693114.8794   21693117.5114
  -2897309.22044  -2257641.20544  21029228.1444   21029231.1804
   5227807.71144   4073615.03444  22740906.4254   22740909.5654
  -5575996.67444  -4344918.64744  24060267.6844   24060274.9924
  -1142567.74944   -890311.85344  25065731.2854   25065737.9284
   3254974.22744   2536343.02844  20959516.8744   20959519.7194
 96  5 15 23  5  0.0000000  0  6G 6G16G24G17G25G 5
  -4428249.94844  -3450581.49944  21682049.5874   21682052.0974
  -2917030.11844  -2273008.12244  21025475.3154   21025478.2964
   5304581.82144   4133438.99344  22755515.9494   22755519.0304
  -5662353.70344  -4412209.67844  24043834.4274   24043841.2414
  -1151322.46044   -897133.73644  25064065.5044   25064068.3874
   3318289.55344   2585679.63144  20971565.3974   20971568.2874
 96  5 15 23  5 30.0000000  0  6G 6G16G 5G24G17G25
  -4486281.82644  -3495801.12444  21671006.3754   21671008.8984
  -2936150.01844  -2287906.72744  21021836.9814   21021840.0154
   3382097.99144   2635400.47444  20983707.7874   20983710.7844
   5381426.81344   4193318.19444  22770139.1864   22770142.2674
  -5748522.70644  -4479354.20844  24027436.9834   24027444.3184
  -1159602.74044   -903585.88644  25062489.8124   25062493.8524
 96  5 15 23  6  0.0000000  0  6G 6G16G 5G24G17G25
  -4544205.51744  -3540936.44444  21659983.8234   21659986.7234
  -2954701.74344  -2302362.60044  21018306.6784   21018309.7424
   3446352.19744   2685468.67344  20995934.9234   20995937.8824
   5458338.45544   4253249.33444  22784775.1304   22784778.2414
  -5834516.70544  -4546362.33644  24011072.5904   24011080.2994
  -1167407.11344   -909667.23944  25061004.6954   25061009.1614
 96  5 15 23  6 30.0000000  0  6G 6G16G 5G24G17G25
  -4602009.07544  -3585978.15844  21648984.2164   21648986.6244
  -2972668.25944  -2316362.46744  21014887.7494   21014890.8114
   3511046.12144   2735879.50544  21008245.8334   21008248.6964
   5535321.50944   4313236.11044  22799424.5584   22799427.6604
  -5920330.71144  -4613230.22644  23994742.5984   23994750.1694
  -1174711.27044   -915358.77244  25059614.9864   25059618.2234
 96  5 15 23  7  0.0000000  0  6G 6G16G 5G24G17G25
  -4659674.10444  -3630911.92744  21638010.8724   21638013.2834
  -2990048.83644  -2329905.75744  21011580.3094   21011583.3394
   3576198.19244   2786647.33544  21020643.9144   21020646.7464
   5612381.24944   4373282.64344  22814088.4224   22814091.6044
  -6005949.34144  -4679945.86444  23978449.7874   23978456.6594
  -1181499.15244   -920648.03544  25058323.2934   25058326.4304
 96  5 15 23  7 30.0000000  0  6G 6G16G 5G24G17G25
  -4717189.65544  -3675729.21844  21627066.1064   21627068.5274
  -3006834.56544  -2342985.52844  21008386.0904   21008389.0274
   3641818.47344   2837780.00444  21033131.0574   21033133.8484
   5689516.14344   4433387.74344  22828766.7454   22828769.8004
  -6091370.78844  -4746507.86344  23962194.5704   23962201.2684
  -1187757.35944   -925524.56644  25057132.2824   25057135.4914
 96  5 15 23  8  0.0000000  0  6G 6G16G 5G24G17G25
  -4774597.81044  -3720462.83044  21616141.6104   21616144.4034
  -3023042.02844  -2355614.70344  21005301.8834   21005304.8634
   3707881.95744   2889258.02744  21045702.5394   21045705.3254
   5766701.21144   4493531.93144  22843454.6224   22843457.7454
  -6176627.11644  -4812941.19644  23945970.6784   23945978.3414
  -1193530.49244   -930023.13844  25056033.4804   25056038.1814
 96  5 15 23  8 30.0000000  0  6G 6G16G 5G24G17G25
  -4831898.93244  -3765113.03444  21605237.5184   21605239.9734
  -3038654.53544  -2367780.27744  21002330.8584   21002333.9444
   3774411.12144   2941098.91244  21058362.6744   21058365.4954
   5843933.47344   4553712.90244  22858151.4234   22858154.5864
  -6261696.90844  -4879229.17744  23929782.3074   23929789.9904
  -1198832.46044   -934154.60644  25055024.7364   25055029.0994
 96  5 15 23  9  0.0000000  0  6G 6G16G 5G24G17G25
  -4889100.29244  -3809685.49944  21594352.5124   21594355.0964
  -3053675.38044  -2379484.81544  20999472.5634   20999475.5134
   3841407.40144   2993303.78444  21071111.5804   21071114.4844
   5921215.05944   4613932.29844  22872857.6094   22872860.7144
  -6346564.24144  -4945359.42944  23913632.6394   23913637.9594
  -1203678.13544   -937930.47244  25054102.7234   25054106.7854
 96  5 15 23  9 30.0000000  0  6G 6G16G 5G24G17G25
  -4946175.15644  -3854159.40044  21583491.3944   21583494.0194
  -3068078.18944  -2390707.76844  20996731.7324   20996734.7554
   3908888.60744   3045886.52544  21083952.6964   21083955.4874
   5998584.81544   4674220.39744  22887580.4714   22887583.5344
  -6431202.54244  -5011311.20944  23897526.2334   23897532.8364
  -1208036.72844   -941326.79944  25053272.9504   25053277.6444
 96  5 15 23 10  0.0000000  0  6G 6G16G 5G24G17G25
  -5003140.47344  -3898547.93644  21572651.2874   21572653.8174
  -3081881.74844  -2401463.77244  20994105.0804   20994108.0964
   3976820.37444   3098820.35444  21096879.8264   21096882.7794
   6076027.61744   4734565.42244  22902317.5454   22902320.8424
  -6515633.01644  -5077101.03944  23881459.5734   23881468.2604
  -1211938.70444   -944367.32344  25052530.5684   25052535.3154
 96  5 15 23 10 30.0000000  0  6G 6G16G 5G24G17G25
  -5059976.86344  -3942836.01144  21561835.6104   21561838.3494
  -3095082.18644  -2411749.81044  20991592.9514   20991595.9904
   4045202.09144   3152104.79144  21109892.2394   21109895.2284
   6153540.17044   4794964.79244  22917067.6134   22917070.7694
  -6599856.47944  -5142729.55544  23865432.2114   23865439.6044
  -1215358.81444   -947032.39844  25051879.6414   25051883.2464
 96  5 15 23 11  0.0000000  0  6G 6G16G 5G24G17G25
  -5116699.57844  -3987035.50744  21551041.5794   21551044.5194
  -3107710.28344  -2421589.87144  20989189.8524   20989193.0084
   4114016.42344   3205726.32644  21122987.1544   21122990.2124
   6231098.67444   4855399.96944  22931826.4524   22931829.6074
  -6683897.73844  -5208216.10144  23849439.4324   23849445.8784
  -1218287.52444   -949314.51344  25051322.1754   25051331.6084
 96  5 15 23 11 30.0000000  0  6G 6G16G 5G24G17G25
  -5173298.79544  -4031138.77344  21540271.0974   21540273.8144
  -3119768.77944  -2430986.08544  20986895.1164   20986898.2324
   4183267.05444   3259687.83844  21136165.1784   21136168.3464
   6308704.82144   4915872.28144  22946594.4284   22946597.5274
  -6767763.88244  -5273566.19044  23833480.2074   23833485.1184
  -1220725.87644   -951214.56844  25050858.3984   25050862.3854
 96  5 15 23 12  0.0000000  0  6G 6G 5G24G17G25G16
  -5229793.95544  -4075160.95644  21529520.4324   21529523.3154
   4252934.08244   3313973.81844  21149422.3714   21149425.4724
   6386330.32544   4976359.66044  22961366.0624   22961369.0454
  -6851470.45644  -5338791.92144  23817551.2494   23817557.4084
  -1222711.54744   -952761.86744  25050480.6694   25050485.4194
  -3131269.92444  -2439948.00444  20984706.5754   20984709.6644
 96  5 15 23 12 30.0000000  0  6G 6G 5G24G17G25G16
  -5286178.94844  -4119097.29844  21518790.6914   21518793.4184
   4323026.64444   3368591.38244  21162760.5574   21162763.6594
   6463979.15244   5036865.21644  22976142.0304   22976145.2424
  -6934999.32544  -5403879.21344  23801656.0484   23801663.2314
  -1224238.45744   -953951.65444  25050190.2204   25050194.5504
  -3142221.80444  -2448481.92144  20982622.4994   20982625.5904
 96  5 15 23 13  0.0000000  0  6G 6G 5G24G17G25G16
  -5342460.37444  -4162952.93444  21508080.7354   21508083.4864
   4393535.52544   3423533.35244  21176177.9974   21176181.1554
   6541665.75044   5097400.20344  22990925.3124   22990928.5714
  -7018347.04044  -5468825.35144  23785795.5794   23785802.0664
  -1225333.48244   -954804.96444  25049981.4474   25049985.7764
  -3152616.89444  -2456581.97644  20980644.3754   20980647.5164
 96  5 15 23 13 30.0000000  0  6G 6G 5G24G17G25G16
  -5398601.00544  -4206698.86344  21497397.5374   21497400.1724
   4464468.94544   3478806.12944  21189676.1584   21189679.2514
   6619411.52344   5157981.29544  23005719.7484   23005723.0654
  -7101492.22444  -5533613.67844  23769973.4044   23769980.1234
  -1226001.28044   -955325.34244  25049854.5574   25049861.5154
  -3162416.65544  -2464218.13844  20978779.5714   20978782.6334
 96  5 15 23 14  0.0000000  0  6G 6G 5G24G17G25G16
  -5454599.62544  -4250334.13444  21486741.3404   21486743.9434
   4535822.96644   3534406.64644  21203254.3314   21203257.4504
   6697213.37644   5218606.09644  23020525.0874   23020528.4264
  -7184427.34244  -5598238.34444  23754191.1214   23754197.0414
  -1226226.68544   -955500.95844  25049811.7604   25049815.1454
  -3171606.78344  -2471379.26444  20977030.6954   20977033.7504
 96  5 15 23 14 30.0000000  0  6G 6G 5G24G17G25G16
  -5510425.79044  -4293835.02644  21476117.9184   21476120.6624
   4607629.57444   3590359.82744  21216918.6774   21216921.8284
   6775107.03744   5279302.43744  23035347.7644   23035350.9854
  -7267121.81444  -5662675.49044  23738454.7544   23738461.1274
  -1225957.60144   -955291.27644  25049863.0214   25049869.0234
  -3180149.34044  -2478035.78844  20975405.0334   20975408.1534
 96  5 15 23 15  0.0000000  0  6G 6G 5G24G17G25G16
  -5566101.03144  -4337218.31444  21465523.2504   21465525.7644
   4679872.42844   3646652.93644  21230666.1014   21230669.1814
   6853058.01544   5340043.44444  23050181.3364   23050184.8754
  -7349610.79744  -5726952.49144  23722757.5574   23722764.9614
  -1225212.80644   -954710.96344  25050004.9384   25050010.1014
  -3188062.78144  -2484202.09344  20973899.1724   20973902.3174
 96  5 15 23 15 30.0000000  0  6G 6G 5G24G17G25G16
  -5621633.84344  -4380490.62144  21454955.7014   21454958.2174
   4752556.95544   3703290.20444  21244497.5504   21244500.6934
   6931054.01344   5400819.52544  23065023.6004   23065026.7914
  -7431896.91744  -5791071.41644  23707099.0024   23707104.1574
  -1223970.95444   -953743.30944  25050241.0074   25050244.1674
  -3195367.54444  -2489894.10144  20972509.0934   20972512.2424
 96  5 15 23 16  0.0000000  0  6G 6G 5G24G17G25G16
  -5677077.13444  -4423693.16744  21444405.2354   21444407.8994
   4825650.22244   3760245.97644  21258406.7024   21258409.8444
   7009051.38044   5461596.67444  23079865.9824   23079868.9194
  -7514018.84044  -5855062.41044  23691471.5774   23691478.3614
  -1222247.72044   -952400.53744  25050568.9284   25050576.7604
  -3202108.55444  -2495146.82344  20971226.3044   20971229.4074
 96  5 15 23 16 30.0000000  0  6G 6G 5G24G17G25G16
  -5732395.64544  -4466798.48544  21433878.4234   21433881.0184
   4899182.76544   3817544.04444  21272399.5094   21272402.6124
   7087088.16244   5522404.53844  23094715.8714   23094719.0484
  -7595936.71644  -5918894.37644  23675883.0214   23675888.9364
  -1220020.55244   -950665.12344  25050992.7664   25050997.5064
  -3208256.89644  -2499937.72344  20970056.2584   20970059.3874
 96  5 15 23 17  0.0000000  0  6G 6G 5G24G17G25G16
  -5787581.81744  -4509800.68144  21423376.7524   21423379.3634
   4973149.51144   3875180.45444  21286474.9474   21286478.0064
   7165164.40544   5583243.15844  23109573.3924   23109575.9794
  -7677651.05944  -5982567.73044  23660333.3394   23660338.8674
  -1217301.73044   -948546.61144  25051510.1864   25051514.6974
  -3213808.03444  -2504263.27244  20968999.9494   20969003.0934
 96  5 15 23 17 30.0000000  0  6G 6G 5G24G17G25G16
  -5842651.80744  -4552712.34744  21412897.3374   21412900.0014
   5047514.99244   3933127.56744  21300626.2254   21300629.3514
   7243275.40444   5644108.84244  23124437.3644   23124440.5324
  -7759170.58544  -6046089.28844  23644820.3334   23644827.1584
  -1214120.92144   -946068.04844  25052115.6434   25052121.4764
  -3218764.87844  -2508125.73744  20968056.7324   20968059.8234
 96  5 15 23 18  0.0000000  0  6G 6G 5G24G17G25G16
  -5897590.48744  -4595521.69644  21402442.8114   21402445.6004
   5122281.63044   3991387.26544  21314853.8864   21314857.0124
   7321421.11444   5705001.58444  23139307.9664   23139311.1834
  -7840489.60344  -6109454.63644  23629345.7914   23629351.5764
  -1210496.56644   -943243.94544  25052805.3764   25052810.2234
  -3223109.95644  -2511511.49944  20967229.8484   20967233.0044
 96  5 15 23 18 30.0000000  0  6G 6G 5G24G17G25G16
  -5952407.35344  -4638236.12244  21392011.4974   21392014.2174
   5197442.34244   4049954.03544  21329156.5494   21329159.6174
   7399598.04644   5765918.65444  23154184.6124   23154187.8274
  -7921623.37644  -6172675.63544  23613906.5224   23613912.2044
  -1206462.96944   -940100.94544  25053572.8904   25053577.4864
  -3226856.33444  -2514430.74144  20966516.9064   20966520.0274
 96  5 15 23 19  0.0000000  0  6G 6G 5G24G17G25G16
  -6007106.14244  -4680858.54144  21381602.6744   21381605.4824
   5272986.76444   4108819.79944  21343532.1854   21343535.2554
   7477774.09544   5826835.03144  23169061.1814   23169064.4854
  -8002598.96244  -6235773.37644  23598497.3174   23598502.8274
  -1202034.54144   -936650.23244  25054415.8404   25054420.9104
  -3230026.94044  -2516901.33344  20965913.5684   20965916.6854
 96  5 15 23 19 30.0000000  0  6G 6G 5G24G17G25G16
  -6061673.31744  -4723378.40344  21371218.9384   21371221.4234
   5348934.15744   4167999.56544  21357984.6004   21357987.6384
   7555962.20044   5887760.80944  23183939.7014   23183943.3824
  -8083398.63444  -6298734.04044  23583121.7424   23583127.2404
  -1197194.34544   -932878.71544  25055336.8544   25055340.0474
  -3232618.99544  -2518921.10444  20965420.3604   20965423.4164
 96  5 15 23 20  0.0000000  0  6G 6G 5G24G17G25G16
  -6116121.19244  -4765805.30144  21360857.7514   21360860.5674
   5425284.93044   4227493.66044  21372513.4904   21372516.6604
   7634143.24444   5948681.08844  23198817.0724   23198820.2374
  -8164035.44344  -6361567.78944  23567776.8274   23567784.4074
  -1191938.12244   -928783.02044  25056336.9354   25056342.1124
  -3234650.45644  -2520504.04844  20965033.7514   20965036.9134
 96  5 15 23 20 30.0000000  0  6G 6G 5G24G17G25G16
  -6170420.87344  -4808116.72744  21350525.0064   21350527.4414
   5502060.72344   4287318.93444  21387123.5234   21387126.5734
   7712351.36644   6009622.45944  23213699.7604   23213703.2084
  -8244479.25144  -6424251.14444  23552468.7344   23552474.4864
  -1186225.12544   -924331.36944  25057424.5284   25057429.1684
  -3236087.91344  -2521624.13044  20964760.2904   20964763.3864
 96  5 15 23 21  0.0000000  0  6G 6G 5G24G17G25G16
  -6224574.63944  -4850314.45044  21340219.9804   21340222.4224
   5579243.57044   4347461.39444  21401811.0384   21401814.0544
   7790577.63544   6070577.97644  23228585.9524   23228589.6534
  -8324715.38344  -6486772.65544  23537200.3654   23537206.7744
  -1180052.19244   -919521.30544  25058599.1484   25058603.3314
  -3236918.92644  -2522271.65944  20964602.2274   20964605.2804
 96  5 15 23 21 30.0000000  0  6G 6G 5G24G17G25G16
  -6278567.01944  -4892386.41944  21329945.3164   21329948.0664
   5656869.10644   4407948.79944  21416582.4744   21416585.6314
   7868866.67044   6131582.41744  23243483.6114   23243486.8224
  -8404694.56144  -6549093.98244  23521980.5414   23521985.1004
  -1173387.01744   -914327.67344  25059867.2444   25059870.5254
  -3237102.06744  -2522414.35444  20964567.0924   20964570.2144
 96  5 15 23 22  0.0000000  0  6G 6G 5G24G17G25G16
  -6332404.59244  -4934337.75944  21319700.2894   21319702.9214
   5734941.22044   4468784.18544  21431439.2884   21431442.4664
   7947213.27144   6192631.74044  23258392.4564   23258396.1134
  -8484420.66944  -6611218.07444  23506809.2064   23506815.1584
  -1166242.42944   -908760.61244  25061226.7984   25061229.1824
  -3236635.53244  -2522050.80544  20964655.9834   20964659.0944
 96  5 15 23 22 30.0000000  0  6G 6G 5G24G17G25G16
  -6386090.13044  -4976170.63344  21309484.4064   21309486.9874
   5813449.25144   4529959.25644  21446378.9204   21446382.0584
   8025607.44144   6253717.97644  23273310.3834   23273313.1714
  -8563899.92844  -6673149.85444  23491684.7034   23491688.7594
  -1158650.01144   -902844.48844  25062671.7714   25062677.8604
  -3235530.38544  -2521189.63844  20964866.2944   20964869.2994
 96  5 15 23 23  0.0000000  0  6G 6G 5G24G17G25G16
  -6439645.98644  -5017902.45444  21299293.0114   21299295.4654
   5892369.57844   4591455.59444  21461396.9494   21461400.1604
   8104015.47344   6314815.14844  23288231.1584   23288234.6714
  -8643159.49044  -6734910.40644  23476601.8804   23476608.4734
  -1150638.76244   -896602.03944  25064196.4444   25064202.3164
  -3233823.99844  -2519859.97244  20965190.9704   20965194.0314
 96  5 15 23 23 30.0000000  0  6G 6G 5G24G17G25G16
  -6493058.15244  -5059522.30744  21289129.1954   21289131.4944
   5971717.11744   4653284.82444  21476496.4384   21476499.5304
   8182447.38944   6375930.91444  23303156.5004   23303159.7624
  -8722213.08844  -6796510.48244  23461558.4884   23461563.4694
  -1142203.74244   -890029.39044  25065801.6404   25065806.2774
  -3231525.09044  -2518068.59744  20965628.6454   20965631.5144
 96  5 15 23 24  0.0000000  0  6G 6G 5G24G17G25G16
  -6546367.44044  -5101061.99544  21278984.7324   21278986.9684
   6051408.45444   4715381.94244  21491661.1594   21491664.0794
   8260837.48544   6437014.08144  23318073.6264   23318076.8374
  -8801137.65844  -6858010.00444  23446539.6074   23446545.4464
  -1133404.98844   -883173.29544  25067476.1334   25067476.7824
  -3228692.51844  -2515861.38644  20966167.6504   20966170.4964
 96  5 15 23 24 30.0000000  0  6G 6G 5G24G17G25G16
  -6599540.47244  -5142495.50944  21268866.3014   21268868.5684
   6131445.17944   4777748.20644  21506891.8244   21506894.8974
   8339207.62344   6498081.68444  23332987.0204   23332990.1354
  -8879906.77044  -6919388.40844  23431550.4454   23431554.9704
  -1124189.29544   -875992.23444  25069229.9294   25069233.0594
  -3225299.90944  -2513217.77844  20966813.2614   20966816.0564
 96  5 15 23 25  0.0000000  0  6G 6G 5G24G17G25G16
  -6652486.53544  -5183752.16344  21258790.9804   21258793.3364
   6211904.54244   4840443.79744  21522202.7574   21522205.7574
   8417645.56144   6559202.14844  23347913.2004   23347915.9524
  -8958439.48544  -6980582.61644  23416605.9594   23416610.1424
  -1114445.84644   -868399.94844  25071083.8034   25071087.4764
  -3221264.12344  -2510072.99344  20967581.2634   20967584.1704
 96  5 15 23 25 30.0000000  0  6G 6G 5G24G17G25G16
  -6705240.79944  -5224859.36944  21248752.1384   21248754.5574
   6292733.57744   4903427.44344  21537584.0744   21537587.0744
   8496110.22044   6620343.40344  23362844.6314   23362847.8454
  -9036780.86844  -7041627.70844  23401697.9684   23401702.9354
  -1104208.28044   -860422.60944  25073031.9954   25073035.5794
  -3216630.89344  -2506462.67144  20968462.9344   20968465.8584
 96  5 15 23 26  0.0000000  0  6G 6G 5G24G17G25G16
  -6757828.13444  -5265836.50044  21238745.0984   21238747.2554
   6373898.53644   4966672.84344  21553029.2494   21553032.0594
   8574573.94244   6681483.94144  23377775.7514   23377778.3824
  -9114939.95944  -7102530.77744  23386824.8224   23386830.7874
  -1093491.51144   -852071.86944  25075071.5474   25075073.8634
  -3211418.40744  -2502400.98244  20969454.8844   20969457.7294
 96  5 15 23 26 30.0000000  0  6G 6G 5G24G17G25G16
  -6810255.51044  -5306688.98444  21228768.5164   21228770.8914
   6455406.89244   5030185.82844  21568539.8294   21568542.8874
   8653046.66744   6742631.48644  23392708.6344   23392711.8074
  -9192899.22744  -7163278.13844  23371989.5564   23371994.8274
  -1082304.29744   -843354.59444  25077200.5154   25077204.2294
  -3205633.86644  -2497893.53544  20970555.5904   20970558.4404
 96  5 15 23 27  0.0000000  0  6G 6G 5G24G17G25G16
  -6862509.80944  -5347406.60044  21218824.7954   21218827.0484
   6537273.39544   5093977.88744  21584118.5024   21584121.4364
   8731543.97944   6803798.20044  23407646.2214   23407649.2344
  -9270648.51144  -7223861.86644  23357194.1294   23357198.6364
  -1070679.07044                  25079412.3454
  -3199274.34344  -2492938.05144  20971765.6744   20971768.5534
 96  5 15 23 27 30.0000000  0  6G 6G 5G24G17G25G16
  -6914583.45644  -5387983.45044  21208915.4004   21208917.6914
   6619516.62944   5158063.50044  21599768.7754   21599771.8954
   8810083.03644   6864997.43544  23422591.7404   23422595.2584
  -9348163.31844  -7284262.88544  23342443.4634   23342448.8174
  -1058625.53144   -824903.62144  25081706.1164   25081710.3124
  -3192312.61944  -2487513.31844  20973090.3884   20973093.1794
 96  5 15 23 28  0.0000000  0  6G 6G 5G24G17G25G16
  -6966503.14444  -5428440.33544  21199035.3704   21199037.8954
   6702124.68344   5222433.38644  21615488.4584   21615491.5814
   8888642.61244   6926212.66844  23437540.9544   23437544.1804
  -9425460.06944  -7344493.98644  23327734.0214   23327739.4194
  -1046185.99544                  25084073.3814
  -3184766.11044  -2481632.90944  20974526.3334   20974529.3624
 96  5 15 23 28 30.0000000  0  6G 6G 5G24G17G25G16
  -7018231.21744  -5468747.90644  21189192.0224   21189194.4574
   6785137.17044   5287118.41744  21631285.3384   21631288.4134
   8967248.84444   6987464.24244  23452499.2714   23452502.6064
  -9502516.16544  -7404537.54044  23313070.9224   23313075.6204
  -1033345.94944   -805205.26244  25086516.6824
  -3176609.79044  -2475277.31944  20976078.5494   20976081.4924
 96  5 15 23 29  0.0000000  0  6G 6G 5G24G17G25G16
  -7069791.99444  -5508925.12044  21179380.3614   21179382.6054
   6868538.61944   5352106.53844  21647156.2364   21647159.3254
   9045857.45044   7048717.68544  23467458.1084   23467460.9694
  -9579368.04544  -7464421.98444  23298446.5004   23298450.6264
  -1020112.55244   -794893.47044  25089034.9694   25089037.2714
  -3167858.92344  -2468458.45044  20977743.8804   20977746.7584
 96  5 15 23 29 30.0000000  0  6G 6G 5G24G17G25G16
  -7121202.66844  -5548985.37244  21169597.2014   21169599.4264
   6952318.52144   5417389.55744  21663099.0254   21663102.1024
   9124446.98644   7109956.25744  23482413.2104   23482416.4394
  -9656023.41944  -7524153.30644  23283859.3204   23283864.6484
  -1006462.96744   -784257.46144  25091632.6494   25091638.4924
  -3158505.89244  -2461170.36244  20979523.7284   20979526.4404
 96  5 15 23 30  0.0000000  0  6G 6G 5G24G17G25G16
  -7172421.84744  -5588896.40844  21159850.4594   21159852.7274
   7036511.62444   5482994.55144  21679120.4674   21679123.4404
   9203063.71744   7171216.01744  23497373.5104   23497376.4874
  -9732460.60044  -7583714.61744  23269313.6984   23269318.5544
   -992342.64344   -773254.62744  25094319.6144   25094322.9204
  -3148517.98244  -2453387.56444  20981424.3374   20981427.1254
 96  5 15 23 30 30.0000000  0  6G 6G 5G24G17G25G16
  -7223482.36544  -5628683.80844  21150134.0954   21150136.2654
   7121084.15044   5548895.19444  21695214.0554   21695217.1534
   9281701.16044   7232491.91444  23512337.6944   23512341.2854
  -9808705.27944  -7643125.91744  23254804.7764   23254809.3184
   -977757.71844   -761889.81644  25097095.0104   25097099.0724
  -3137904.17144  -2445117.05144  20983444.0534   20983446.8244
 96  5 15 23 31  0.0000000  0  6G 6G16G 5G24G17G25
  -7274415.78544  -5668372.16944  21140441.7424   21140443.9014
  -3126686.78944  -2436376.22144  20985578.6224   20985581.4204
   7205990.51244   5615055.97244  21711371.1904   21711374.3304
   9360338.42744   7293767.68244  23527302.0484   23527304.7824
  -9884785.55844  -7702409.11144  23240327.1014   23240332.0004
   -962726.28444   -750177.04044  25099955.3074   25099959.5584
 96  5 15 23 31 30.0000000  0  6G 6G16G 5G24G17G25
  -7325180.73644  -5707929.25744  21130781.3854   21130783.5994
  -3114858.60144  -2427159.44344  20987829.4244   20987832.1324
   7291247.11544   5681489.66644  21727594.9664   21727597.9484
   9439018.72944   7355076.97744  23542274.4174   23542277.2434
  -9960669.35044  -7761539.20444  23225886.6264   23225891.4104
   -947244.61844   -738113.44544  25102901.4794   25102904.5224
 96  5 15 23 32  0.0000000  0  6G 6G16G 5G24G17G25
  -7375783.42744  -5747359.92044  21121151.9034   21121154.2654
  -3102459.20744  -2417497.56944  20990188.7534   20990191.7004
   7376836.43744   5748182.61844  21743881.9624   21743884.9054
   9517732.06644   7416412.02344  23557252.9294   23557256.1454
 -10036368.05244  -7820525.08344  23211481.4694   23211486.8194
   -931350.55944   -725728.48544  25105925.7354   25105929.7234
 96  5 15 23 32 30.0000000  0  6G 6G16G 5G24G17G25
  -7426215.46944  -5786657.60644  21111555.0464   21111557.3474
  -3089500.91944  -2407400.19444  20992654.6224   20992657.5914
   7462739.68944   5815120.19844  21760228.8684   21760232.0644
   9596443.44444   7477745.54144  23572231.1974   23572234.3734
 -10111858.93844  -7879349.02944  23197115.9004   23197120.8684
   -915057.69444   -713032.75844  25109026.2904   25109028.1194
 96  5 15 23 33  0.0000000  0  6G 6G16G 5G24G17G25
  -7476478.57744  -5825823.65244  21101990.2514   21101992.6144
  -3076018.11244  -2396894.10144  20995220.3184   20995223.2334
   7548933.44644   5882284.14244  21776631.0154   21776634.0724
   9675097.08944   7539034.07244  23587198.4734   23587201.6204
 -10187157.97544  -7938023.48544  23182786.8464   23182792.7494
   -898402.22244   -700054.54544  25112195.7014   25112200.3224
 96  5 15 23 33 30.0000000  0  6G 6G16G 5G24G17G25
  -7526541.72844  -5864833.88744  21092463.5834   21092465.7944
  -3061974.56044  -2385951.06344  20997892.8504   20997895.6434
   7635451.00544   5949700.40244  21793094.8184   21793097.9624
   9753713.40744   7600293.51444  23602158.8354   23602162.8614
 -10262218.24344  -7996511.89244  23168503.3874   23168507.5374
   -881363.76344   -686777.88044  25115438.1774   25115442.7984
 96  5 15 23 34  0.0000000  0  6G 6G16G 5G24G17G25
  -7576421.54744  -5903701.26944  21082971.7534   21082974.0514
  -3047356.21144  -2374560.13344  21000674.5464   21000677.4304
   7722286.86844   6017364.68844  21809619.1734   21809622.3324
   9832281.82044   7661515.62944  23617109.8934   23617113.1584
 -10337034.94744  -8054810.52844  23154266.1824   23154270.8964
   -863935.34444   -673197.36044  25118754.7064   25118759.5854
 96  5 15 23 34 30.0000000  0  6G 6G16G 5G24G17G25
  -7626089.33644  -5942403.43244  21073520.2864   21073522.5304
  -3032122.10544  -2362689.39444  21003573.5324   21003576.2704
   7809466.44844   6085296.80044  21826208.9034   21826212.0754
   9910831.37544   7722723.04244  23632057.3834   23632060.5914
 -10411585.52544  -8112901.78344  23140079.5764   23140083.5814
   -846082.89644   -659286.41844  25122151.9754   25122156.4694
 96  5 15 23 35  0.0000000  0  7G 6G16G 5G24G17G25G26
  -7675507.10644  -5980910.77644  21064116.3134   21064118.6384
  -3016222.82344  -2350300.33744  21006599.0004   21006601.7964
   7897046.81544   6153541.21044  21842874.8414   21842878.0594
   9989419.29544   7783960.35444  23647012.0454   23647014.3594
 -10485845.11744  -8170766.30244  23125948.3414   23125952.9794
   -827766.14444   -645013.74244  25125637.2484   25125642.0174
        -0.36254         0.19754  25130596.3384
 96  5 15 23 35 30.0000000  0  7G 6G16G 5G24G17G25G26
  -7724722.33944  -6019260.30144  21054750.8194   21054753.3704
  -2999701.60844  -2337426.65544  21009742.6914   21009745.7364
   7984992.53644   6222070.31444  21859610.2244   21859613.3924
  10068025.74244   7845212.10944  23661970.2314   23661973.7254
 -10559853.04744  -8228434.71744  23111864.8574   23111869.5804
   -809012.33044                  25129206.0904
    -77389.42144    -60302.59444  25115869.1554   25115875.4514
 96  5 15 23 36  0.0000000  0  6G 6G16G 5G24G17G26
  -7773787.79644  -6057493.11544  21045414.0594   21045416.4344
  -2982618.82644  -2324115.39044  21012993.5144   21012996.4024
   8073246.36244   6290839.50744  21876404.5104   21876407.6844
  10146600.02644   7906438.79644  23676922.4294   23676925.9934
 -10633687.12244  -8285967.67144  23097814.6984   23097820.1224
   -154923.40544   -120718.31144  25101114.6464   25101119.8984
 96  5 15 23 36 30.0000000  0  7G 6G16G 5G24G17G23G26
  -7822694.11944  -6095601.93044  21036107.6474   21036109.8874
  -2964968.21944  -2310361.66144  21016352.4604   21016355.0874
   8161803.66544   6359845.17544  21893256.5884   21893259.7354
  10225136.28144   7967635.84544  23691867.5764   23691871.0174
 -10707365.57644  -8343379.34544  23083794.3624   23083799.1844
        -0.53554                  25276836.4894
   -232605.69644   -181249.58544  25086332.0674   25086338.7544
 96  5 15 23 37  0.0000000  0  7G 6G16G 5G24G17G23G26
  -7871401.39744  -6133555.64644  21026838.9504   21026841.1704
  -2946699.64944  -2296126.40644  21019828.8384   21019831.5204
   8250711.28144   6429123.81144  21910175.1794   21910178.3154
  10303686.50544   8028843.78744  23706815.1954   23706818.5484
 -10780848.18844  -8400638.42944  23069810.9404   23069815.6394
   -107252.22844                  25256426.9224
   -310390.41644   -241860.68544  25071529.7734   25071536.1084
 96  5 15 23 37 30.0000000  0  7G 6G16G 5G24G17G23G26
  -7919915.91844  -6171359.15744  21017606.9234   21017609.1684
  -2927810.66344  -2281407.70644  21023423.3194   21023425.9674
   8339962.99144   6498670.56544  21927159.1694   21927162.2234
  10382267.55544   8090075.74544  23721768.7504   23721771.8534
 -10854129.86544  -8457740.95744  23055865.8764   23055869.5394
   -214468.22944                  25236024.5164
   -388256.12844   -302534.90944  25056712.3254   25056716.3084
 96  5 15 23 38  0.0000000  0  7G 6G16G 5G24G17G23G26
  -7968234.20944  -6209009.76344  21008412.2604   21008414.4774
  -2908305.90044  -2266209.18244  21027134.9324   21027137.7594
   8429558.39844   6568485.14244  21944208.6314   21944211.7974
  10460878.24444   8151330.81844  23736727.8964   23736730.6294
 -10927217.86744  -8514692.57044  23041957.6224   23041962.5244
   -321661.41144                  25215625.7334
   -466203.12444   -363272.48344  25041879.2194   25041885.2344
 96  5 15 23 38 30.0000000  0  7G 6G16G 5G24G17G23G26
  -8016361.71244  -6246511.70644  20999253.9124   20999256.0804
  -2888193.58144  -2250537.24044  21030962.1034   21030964.9044
   8519511.54644   6638578.47744  21961326.1884   21961329.2744
  10539523.87144   8212613.09244  23751693.6434   23751697.2864
 -11000096.17144  -8571480.78144  23028089.2104   23028093.4534
   -428805.67844                  25195217.1414
   -544238.55144   -424078.98744  25027028.9504   25027032.7294
 96  5 15 23 39  0.0000000  0  7G 6G16G 5G24G17G23G26
  -8064312.30944  -6283875.79844  20990129.0434   20990131.3574
  -2867503.22844  -2234414.87944  21034899.2814   21034902.1404
   8609821.08144   6708949.51444  21978511.4424   21978514.7424
  10618207.01044   8273924.60744  23766666.4714   23766670.7064
 -11072754.19044  -8628097.35144  23014262.7564   23014267.3284
   -535235.01944                  25174837.8364
   -622374.40944   -484963.74944  25012159.8194   25012165.6354
 96  5 15 23 39 30.0000000  0  7G16G 6G 5G24G17G23G26
  -2846265.29244  -2217865.83044  21038940.7864   21038943.5984
  -8112090.42444  -6321105.48844  20981037.2424   20981039.5934
   8700456.18444   6779574.24244  21995758.6874   21995761.8504
  10696887.95844   8335234.40944  23781639.1144   23781641.9834
 -11145192.19844  -8684542.49344  23000478.2764   23000482.3924
   -641754.03544                  25154446.8774
   -700643.94044   -545952.86544  24997281.1824
 96  5 15 23 40  0.0000000  0  7G16G 5G 6G24G17G23G26
  -2824464.69444  -2200878.34344  21043089.3754   21043092.1054
   8791423.35844   6850457.72544  22013069.2624   22013072.5814
  -8159674.79744  -6358184.21044  20971982.2394   20971984.4134
  10775554.84244   8396533.25044  23796608.9524   23796612.0414
 -11217398.41644  -8740807.00044  22986737.7064   22986741.6844
   -749025.55744                  25134019.3064
   -779767.93444                  24982345.6584
 96  5 15 23 40 30.0000000  0  5G16G 5G24G17G 6
  -2802056.13544  -2183417.11944  21047353.4154   21047356.2574
   8882736.90144   6921611.10044  22030445.5554   22030448.8414
  10854231.80844   8457839.95144  23811580.4764   23811583.4654
 -11289333.09244  -8796859.91344  22973048.6094   22973053.3104
  -8207024.12044  -6395079.77844  20962971.7774   20962974.1934
 96  5 15 23 41  0.0000000  0  5G16G 5G 6G24G17
  -2779123.33544  -2165547.39744  21051717.3414   21051720.2134
   8974275.11044   6992939.54444  22047864.6454   22047867.9814
  -8254207.70244  -6431846.19744  20953993.0664   20953995.4514
  10932816.30244   8519074.59244  23826534.6584   23826538.5684
 -11361092.52444  -8852776.28344  22959393.2894   22959398.0264
 96  5 15 23 41 30.0000000  0  7G16G 6G 5G24G17G23G26
  -2755559.42744  -2147185.90144  21056201.4024   21056204.3464
  -8301116.16044  -6468398.23444  20945066.7094   20945068.9944
   9066125.51144   7064511.25444  22065343.2184   22065346.4654
  11011395.20844   8580304.88044  23841487.7894   23841490.8534
 -11432590.37844  -8908488.81044  22945787.6794   22945791.8924
        -0.03854         0.87054  25072750.0994
        -0.44754         0.17654  24937476.1994   24937485.8794
 96  5 15 23 42  0.0000000  0  7G16G 5G 6G24G17G23G26
  -2731434.82644  -2128387.50244  21060792.3364   21060795.1154
   9158231.53244   7136282.14744  22082870.5934   22082873.7024
  -8347819.00444  -6504790.05044  20936179.5114   20936181.6464
  11089920.13244   8641493.09444  23856430.7964   23856434.3054
 -11503904.46144  -8964058.12944  22932217.1154   22932221.7154
   -107334.79044    -83636.21344  25052325.0594
    -78798.68644    -61400.77744  24922481.4024   24922486.1684
 96  5 15 23 42 30.0000000  0  7G16G 6G 5G24G17G23G26
  -2706739.19344  -2109144.14244  21065491.8274   21065494.4304
  -8394290.53644  -6541001.62144  20927336.3144   20927338.4014
   9250609.96744   7208265.31844  22100449.7194   22100452.8684
  11168433.62844   8702672.42344  23871371.3334   23871374.5154
 -11575009.01744  -9019464.19544  22918686.3664   22918690.5594
   -214634.34544                  25031902.4804
   -157679.16144   -122865.83444  24907471.2134   24907475.1784
 96  5 15 23 43  0.0000000  0  7G16G 5G 6G24G17G23G26
  -2681468.05544  -2089452.33644  21070300.6994   21070303.5254
   9343293.93144   7280486.56144  22118086.9384   22118090.0974
  -8440527.03644  -6577030.05644  20918537.8894   20918539.9854
  11246952.44344   8763855.89144  23886313.0444   23886316.7834
 -11645884.52344  -9074691.78144  22905199.2014   22905203.1834
   -321315.70244                  25011500.7894
   -236628.81944   -184384.80244  24892447.6354   24892453.6284
 96  5 15 23 43 30.0000000  0  6G16G 6G 5G24G17G26
  -2655625.86344  -2069315.55544  21075218.3304   21075220.9324
  -8486546.95644  -6612889.72744  20909780.6164   20909782.6814
   9436302.96544   7352961.10444  22135786.0384   22135789.2064
  11325482.53844   8825048.14644  23901256.7954   23901260.1574
 -11716522.35344  -9129734.15944  22891757.2854   22891761.6194
   -315652.95244   -245961.81844  24877409.3924   24877414.4044
 96  5 15 23 44  0.0000000  0  7G16G 5G 6G24G17G23G26
  -2629241.99344  -2048756.69044  21080238.9574   21080241.7334
   9529619.33744   7425675.12944  22153543.4444   22153546.5934
  -8532388.04344  -6648610.05044  20901057.3494   20901059.5504
  11404004.46844   8886234.03144  23916199.1034   23916202.8874
 -11786946.07044  -9184609.71044  22878356.0464   22878360.3754
        -0.66554                  24970718.7244
   -394773.49544   -307613.99344  24862353.2044   24862356.8634
 96  5 15 23 44 30.0000000  0  7G16G 6G 5G24G17G23G26
  -2602276.51544  -2027744.62344  21085370.3044   21085372.8864
  -8578019.90444  -6684167.33944  20892373.8424   20892375.9994
   9623278.54144   7498656.29544  22171366.3144   22171369.5354
  11482548.43744   8947437.08844  23931145.5574   23931148.7624
 -11857119.21544  -9239290.01244  22865002.4984   22865006.5784
   -107089.14044                  24950338.5104
   -473942.63844   -369303.97644  24847287.6654   24847292.6074
 96  5 15 23 45  0.0000000  0  7G16G 6G 5G24G17G23G26
  -2574770.15044  -2006311.08644  21090604.6214   21090607.4384
  -8623477.50144  -6719588.83744  20883723.4994   20883725.5994
   9717249.59944   7571880.46544  22189248.4284   22189251.5164
  11561065.22544   9008618.96644  23946086.8804   23946090.8034
 -11927081.32044  -9293805.84944  22851689.0924   22851692.9534
   -214171.46944   -166885.62444  24929961.1364
   -553196.90444   -431060.37244  24832205.9114
 96  5 15 23 45 30.0000000  0  7G16G 6G 5G24G17G23G26
  -2546744.93744  -1984473.25044  21095937.6164   21095940.3974
  -8668771.92644  -6754883.19144  20875104.2834   20875106.3564
   9811498.34344   7645321.01644  22207183.3874   22207186.7034
  11639544.92544   9069771.96444  23961021.1784   23961024.6864
 -11996869.88144  -9348186.46244  22838408.7444   22838413.0054
   -321274.93944                  24909579.6484
   -632554.50844   -492897.26744  24817104.5064   24817109.6494
 96  5 15 23 46  0.0000000  0  7G16G 6G 5G24G17G23G26
  -2518186.67444  -1962220.05344  21101372.0714   21101374.7934
  -8713870.47644  -6790024.90944  20866522.3194   20866524.5294
   9906016.79144   7718971.72744  22225169.6264   22225172.9004
  11717999.04844   9130905.00244  23975950.4484   23975953.3284
 -12066483.97844  -9402431.16444  22825161.5414   22825165.6504
   -428388.44544                  24889196.3914
   -712010.13644   -554810.54844  24801984.3564   24801987.5184
 96  5 15 23 46 30.0000000  0  7G16G 6G 5G24G17G23G26
  -2489081.32744  -1939540.55844  21106910.6804   21106913.1744
  -8758743.51244  -6824990.91144  20857983.2584   20857985.2694
  10000791.78244   7792822.33944  22243204.7124   22243207.9464
  11796423.83244   9192015.19144  23990874.2684   23990877.3504
 -12135910.07944  -9456529.34844  22811950.0744   22811953.9994
   -535496.22544   -417267.17644  24868814.0754
   -791564.25644   -616800.55844  24786845.5214   24786849.6534
 96  5 15 23 47  0.0000000  0  7G16G 6G 5G24G17G23G26
  -2459414.53444  -1916423.57044  21112556.0224   21112558.5384
  -8803373.73944  -6859767.70744  20849490.4054   20849492.5484
  10095805.68344   7866859.11444  22261285.1944   22261288.4824
  11874814.55944   9253098.85544  24005791.4374   24005794.3134
 -12205142.42244  -9510476.57144  22798775.4554   22798779.1294
   -642581.16544   -500709.52644  24848436.2204
   -871204.55444   -678857.78344  24771690.1724   24771695.2824
 96  5 15 23 47 30.0000000  0  7G16G 6G 5G24G17G23G26
  -2429160.08244  -1892848.66844  21118313.2684   21118315.9964
  -8847744.63344  -6894342.42444  20841046.8704   20841049.0824
  10191061.83644   7941084.65544  22279411.8664   22279415.1214
  11953176.12444   9314159.76544  24020703.1754   24020707.5164
 -12274156.70544  -9564253.86244  22785642.4064   22785646.3164
   -749624.44644                  24828066.2634
   -950905.68344   -740962.38544  24756523.6614   24756528.8224
 96  5 15 23 48  0.0000000  0  7G16G 6G 5G24G17G23G26
  -2398325.34044  -1868821.59344  21124180.8544   21124183.7064
  -8891870.85844  -6928726.48844  20832649.8484   20832651.9844
  10286546.73044   8015488.43644  22297582.0894   22297585.2244
  12031483.44544   9375178.43144  24035604.5064   24035608.6834
 -12342941.53344  -9617852.37544  22772553.0004   22772556.7314
   -856633.90944   -667502.87444  24807702.3804   24807709.5764
  -1030670.10944   -803116.30744  24741344.8144   24741350.9894
 96  5 15 23 48 30.0000000  0  7G16G 6G 5G24G17G23G26
  -2366903.33744  -1844336.91444  21130160.2094   21130162.9804
  -8935759.49744  -6962925.42244  20824298.0754   20824300.3734
  10382277.35644   8090083.69644  22315799.0564   22315802.5124
  12109743.90244   9436160.56044  24050496.8984   24050500.1234
 -12411486.51644  -9671264.01444  22759509.3344   22759513.1694
   -963592.88144   -750847.07844  24787348.2454   24787356.4364
  -1110473.43944   -865300.55744  24726158.7254   24726165.0274
 96  5 15 23 49  0.0000000  0  7G16G 6G 5G24G17G23G26
  -2334903.95344  -1819402.32544  21136249.3074   21136252.2954
  -8979428.13444  -6996952.92644  20815988.0844   20815990.5074
  10478261.71344   8164876.67144  22334064.1834   22334067.4394
  12187962.65744   9497110.20644  24065381.4934   24065385.2304
 -12479799.23944  -9724494.66444  22746509.8324   22746513.8104
  -1070507.80544   -834156.94944  24767002.8904
  -1190316.41344   -927515.70944  24710964.9814   24710974.4144
 96  5 15 23 49 30.0000000  0  7G16G 6G 5G24G17G23G26
  -2302321.47244  -1794013.37744  21142449.5254   21142452.5504
  -9022863.04244  -7030798.30044  20807722.6354   20807725.0484
  10574533.56544   8239893.66244  22352384.1214   22352387.3024
  12266171.10744   9558051.82044  24080263.9644   24080268.1544
 -12547862.94544  -9777531.25044  22733557.6754   22733561.7534
  -1177364.50944   -917421.42444  24746668.3024
  -1270205.22744   -989766.60744  24695762.3594   24695767.3864
 96  5 15 23 50  0.0000000  0  7G16G 6G 5G24G17G23G26
  -2269165.82444  -1768177.80944  21148759.0314   21148761.8134
  -9066069.58444  -7064465.72444  20799500.9284   20799503.0824
  10671081.72544   8315125.96144  22370756.6784   22370760.0184
  12344374.03644   9618989.13844  24095145.6074   24095150.8354
 -12615695.45544  -9830387.66544  22720649.5044   22720653.1664
  -1284169.99444  -1000646.01344  24726343.4964   24726350.8814
  -1350145.46944  -1052057.52544  24680550.0974   24680553.6194
 96  5 15 23 50 30.0000000  0  7G16G 6G 5G24G17G23G26
  -2235434.95644  -1741894.01644  21155177.8304   21155180.6264
  -9109042.48644  -7097951.09344  20791323.4414   20791325.6694
  10767906.14044   8390573.51944  22389181.8394   22389185.2264
  12422577.22244   9679926.65144  24110027.4124   24110031.1284
 -12683307.52644  -9883072.31944  22707783.3294   22707787.2854
  -1390921.50844  -1083828.61644  24706029.2894   24706038.4734
  -1430134.20444  -1114386.24844  24665328.6974   24665333.4774
 96  5 15 23 51  0.0000000  0  7G16G 6G 5G24G17G23G26
  -2201151.54944  -1715179.67144  21161701.6994   21161704.5614
  -9151792.48744  -7131262.77744  20783188.4124   20783190.6264
  10864986.73444   8466220.69844  22407655.7384   22407659.0544
  12500767.32344   9740853.98144  24124906.6414   24124909.7744
 -12750703.23444  -9935588.37444  22694958.2794   22694961.8594
  -1497647.21944  -1166991.06644  24685719.8074   24685728.9914
  -1510183.30344  -1176762.06544  24650095.9554   24650099.1604
 96  5 15 23 51 30.0000000  0  7G16G 6G 5G24G17G23G26
  -2166313.13044  -1688032.84844  21168331.2504   21168333.8464
  -9194305.78444  -7164390.01544  20775098.3764   20775100.5504
  10962323.16444   8542067.22744  22426178.3034   22426181.4294
  12578945.87244   9801772.28544  24139783.4724   24139786.1684
 -12817871.68944  -9987927.34544  22682176.4414   22682180.4864
  -1604337.69644  -1250126.08944  24665416.8414   24665423.2184
  -1590256.97844  -1239157.01744  24634858.1794   24634866.0544
 96  5 15 23 52  0.0000000  0  7G16G 6G 5G24G17G23G26
  -2130921.40244  -1660454.87844  21175066.0474   21175069.0174
  -9236582.66144  -7197333.03444  20767053.3214   20767055.6174
  11059908.12644   8618107.42944  22444748.0954   22444751.6544
  12657102.18244   9862673.26244  24154656.1314   24154658.4964
 -12884820.90244 -10040095.49344  22669436.4594   22669440.5674
  -1710980.25544  -1333223.77944  24645123.2314   24645130.6034
  -1670319.39344  -1301543.14344  24619622.7944   24619627.5904
 96  5 15 23 52 30.0000000  0  7G16G 6G 5G24G17G23G26
  -2094994.63244  -1632459.99144  21181902.7374   21181905.4334
  -9278635.13344  -7230101.19044  20759050.9634   20759053.1754
  11157743.03344   8694342.38844  22463365.5424   22463368.7294
  12735225.18444   9923548.31244  24169522.4754   24169526.2644
 -12951552.12544 -10092093.79744  22656737.8964   22656741.7214
  -1817582.32044  -1416289.95144  24624837.1594   24624841.6044
  -1750376.47144  -1363925.17044  24604388.2694   24604390.7604
 96  5 15 23 53  0.0000000  0  7G16G 6G 5G24G17G23G26
  -2058536.93144  -1604051.39344  21188840.3824   21188843.0994
  -9320453.15444  -7262686.65744  20751093.2644   20751095.5204
  11255821.59944   8770767.20544  22482029.2054   22482032.5024
  12813317.07644   9984399.10244  24184382.8974   24184388.1184
 -13018064.49144 -10143921.56344  22644080.9854   22644085.0574
  -1924136.46944  -1499318.82244  24604560.6274   24604566.3414
  -1830413.41144  -1426291.50044  24589157.5354   24589163.9724
 96  5 15 23 53 30.0000000  0  7G16G 6G 5G24G17G23G26
  -2021518.04444  -1575205.50644  21195884.8704   21195887.5564
  -9362002.44444  -7295062.71844  20743186.6964   20743188.8924
  11354163.66244   8847397.34644  22500743.0424   22500746.4704
  12891394.92344  10045238.94644  24199240.5334   24199243.0124
 -13084349.96644 -10195572.53144  22631467.0974   22631470.7514
  -2030599.28744  -1582276.52944  24584301.0384   24584306.8674
  -1910417.39144  -1488632.13044  24573933.0974   24573938.3934
 96  5 15 23 54  0.0000000  0  7G16G 6G 5G24G17G23G26
  -1983975.37144  -1545951.47444  21203028.9764   21203031.6794
  -9403310.27744  -7327250.63444  20735326.0824   20735328.2324
  11452740.76044   8924210.63444  22519501.8074   22519505.6084
  12969439.63444  10106052.96144  24214091.8034   24214095.3354
 -13150443.95644 -10247074.29244  22618889.7284   22618893.6694
  -2137001.42944                  24564052.9984
  -1990453.89444  -1550998.09444  24558702.5514   24558708.9814
 96  5 15 23 54 30.0000000  0  7G16G 6G 5G24G17G23G26
  -1945919.26744  -1516297.36644  21210270.8354   21210273.5324
  -9444385.12644  -7359257.00644  20727509.7924   20727512.0894
  11551532.39844   9001191.08944  22538301.1824   22538304.6234
  13047446.78244  10166837.71944  24228936.1224   24228939.8284
 -13216349.29244 -10298429.05644  22606348.3554   22606352.4884
  -2243364.25644  -1748066.54044  24543812.5214   24543820.3284
  -2070561.03144  -1613419.11644  24543458.6844   24543464.8834
 96  5 15 23 55  0.0000000  0  7G16G 6G 5G24G17G23G26
  -1907341.05644  -1486236.42244  21217612.0474   21217614.7104
  -9485213.72744  -7391071.49444  20719740.3464   20719742.4994
  11650533.13144   9078334.48744  22557140.4294   22557143.5224
  13125418.28644  10227594.69344  24243773.7894   24243776.9944
 -13282061.07044 -10349632.99344  22593843.7324   22593847.6914
  -2349673.91744  -1830904.83244  24523582.0114   24523588.1034
  -2150743.00544  -1675898.42044  24528200.2884   24528207.0894
 96  5 15 23 55 30.0000000  0  7G16G 6G 5G24G17G23G26
  -1868222.18244  -1455754.18344  21225056.1004   21225058.8944
  -9525776.73944  -7422679.02944  20712021.5334   20712023.7374
  11749771.31444   9155662.90644  22576024.8084   22576028.0204
  13203376.74544  10288341.51444  24258608.7564   24258612.1814
 -13347555.73744 -10400667.76244  22581380.6404   22581384.7034
  -2455899.20744  -1913677.44644  24503367.7024   24503374.2144
  -2230994.45444  -1738431.91344  24512928.7744   24512932.7994
 96  5 15 23 56  0.0000000  0  7G16G 6G 5G24G17G23G26
  -1828568.78944  -1424855.43544  21232601.8254   21232604.7464
  -9566083.75444  -7454087.08044  20704351.3374   20704353.5224
  11849237.09844   9233168.67144  22594952.5634   22594955.9754
  13281319.08244  10349075.76644  24273440.8184   24273444.0924
 -13412826.40044 -10451527.99944  22568959.9724   22568963.8444
  -2562042.18544  -1996385.93544  24483169.2164   24483176.6474
  -2311310.84344  -1801015.99444  24497645.0284   24497648.4884
 96  5 15 23 56 30.0000000  0  7G16G 6G 5G24G17G23G26
  -1788364.79244  -1393527.64544  21240252.4254   21240255.2014
  -9606150.10244  -7485307.59644  20696726.9444   20696728.9904
  11948916.29744   9310840.73544  22613920.8714   22613924.0514
  13359223.85344  10409780.76044  24288265.6774   24288269.4144
 -13477873.58044 -10502214.10644  22556581.8674   22556585.6354
  -2668100.86844  -2079028.70144  24462986.5904   24462993.0834
  -2391672.82144  -1863635.61544  24482352.7104   24482359.3754
 96  5 15 23 57  0.0000000  0  7G16G 6G 5G24G17G23G26
  -1747601.96944  -1361764.40644  21248009.3834   21248012.1064
  -9645963.27844  -7516330.83944  20689150.6384   20689152.8144
  12048816.76144   9388685.21544  22632931.3734   22632934.5954
  13437082.74244  10470449.98244  24303081.6174   24303085.9824
 -13542691.07944 -10552721.23244  22544247.6524   22544251.2284
  -2774062.00344  -2161595.51844  24442822.6054   24442832.5344
  -2472054.10344  -1926270.26844  24467056.5334   24467060.8174
 96  5 15 23 57 30.0000000  0  7G16G 6G 5G24G17G23G26
  -1706257.19044  -1329547.69644  21255877.0254   21255879.7604
  -9685496.00444  -7547135.54644  20681627.8784   20681630.0284
  12148967.36144   9466724.60944  22651989.3734   22651993.0594
  13514924.66144  10531105.98744  24317894.4454   24317897.9224
 -13607249.91444 -10603026.81044  22531962.5284   22531966.4084
  -2879905.32944  -2244070.49844  24422681.0504   24422688.3394
  -2552415.93144  -1988889.79144  24451764.2604   24451769.2294
 96  5 15 23 58  0.0000000  0  7G16G 6G 5G24G17G23G26
  -1664346.77044  -1296890.22344  21263852.3064   21263855.1934
  -9724775.37444  -7577742.83844  20674153.2794   20674155.3694
  12249349.22644   9544944.20444  22671091.3594   22671095.2634
  13592721.28944  10591726.69744  24332698.5754   24332702.2214
 -13671566.47944 -10653143.59044  22519723.4594   22519727.4514
  -2985670.12244  -2326484.32844  24402554.5744   24402558.3714
  -2632762.51344  -2051497.39844  24436474.7634   24436479.1574
 96  5 15 23 58 30.0000000  0  7G16G 6G 5G24G17G23G26
  -1621876.32144  -1263796.36644  21271934.0804   21271936.8044
  -9763788.77344  -7608142.88044  20666729.2904   20666731.4474
  12349967.80044   9623348.24744  22690238.4824   22690241.7324
  13670471.96944  10652311.60344  24347494.1144   24347498.4994
 -13735641.36944 -10703072.03344  22507530.3104   22507533.8824
  -3091362.22844  -2408841.49844  24382441.7664   24382445.2324
  -2713076.04844  -2114079.28944  24421191.4504   24421194.8624
 96  5 15 23 59  0.0000000  0  7G16G 6G 5G24G17G23G26
  -1578895.27644  -1230304.64044  21280113.1494   21280115.8804
  -9802531.46344  -7638331.97744  20659356.8004   20659358.8864
  12450808.62344   9701925.47144  22709427.9864   22709431.9004
  13748174.61544  10712859.10344  24362280.6484   24362284.7244
 -13799488.01144 -10752822.61644  22495380.6984   22495384.3674
  -3196996.49244  -2491153.59444  24362340.0234   24362347.0934
  -2793372.78044  -2176648.09644  24405911.2624   24405916.5414
